"Pseudo-MPEC" for P20TZNB

Created 2019 Nov 13 10:07:13 UT using Find_Orb

Click here for an explanation of pseudo-MPECs

 
 Astrometry: 
     P20TZNB  C2019 11 02owwfAstrometryf(\kM/Uba)fc:4:n@j(/Cvm-]jVredacted;ZgF52
     P20TZNB  C2019 11 02wJ3FwQU,mp5Y4)GNwgPaxI9hclickYM/V(YiN0t]g.+!BiHpfj4FF52
     P20TZNB  C2019 11 02@P#rSherep`2DJiL)2T:-70tEpOg_x7%hLbV)[/yuAwyd#)wWw^oF52
     P20TZNB |C2019 11 06-2:Wb\`sB(yHD/QYr*/n(.2+7/chG2PZ-vbJ66FiHySvK]+s?9,K807
     P20TZNB |C2019 11 06+;hs=TIQZ1Mw5c3[[)wU\s[s$T9r`#V`Ps:TJNewK:^5uaforrrp807
     P20TZNB |C2019 11 06TFQ'$,@vl^SHx*u8explanation8EgWv816QFe8^bL^:SbN_lf8o807

Station data:
(807) Cerro Tololo Observatory, La Serena  (S30.169136 W70.805900)  Chile.
(F52) Pan-STARRS 2, Haleakala  (N20.707384 W156.255910)  US/Hawaii. 1.8-m
   Ritchey-Chrétien + CCD.

Orbital elements:  P20TZNB
   Perihelion 2020 Feb 4.130970 +/- 31.1 TT =  3:08:35 (JD 2458883.630970)
Epoch 2019 Nov  6.0 TT = JDT 2458793.5   Earth MOID: 0.0116   Ma: 0.0435
M 325.62411710 +/- 35               (J2000 ecliptic)          AutoNEOCP
n   0.38139923 +/- 0.238            Peri.   64.28874 +/- 18
a   1.88314099 +/- 0.784            Node    73.49628 +/- 10
e   0.5678665 +/- 0.179             Incl.    7.21362 +/- 2.6
P   2.58/943.87d           H 21.9   G  0.15   U 11.8  SR
q 0.81376817 +/- 0.163    Q 2.95251380 +/- 4.86
From 6 observations 2019 Nov. 2-6; mean residual 0".14
Residuals in arcseconds: 
191102 F52  .25-  .07-    191102 F52  .20+  .11+    191106 807  .04+  .10-    
191102 F52  .06+  .03-    191106 807  .12+  .09-    191106 807  .16-  .20+    

Ephemerides (geocentric):
Date (UTC) HH   RA              Dec         delta   r     elong  mag " sig PA
---- -- -- --  -------------   -----------  ------ ------ -----  --- ---- ---
2019 11 13 10  01 44 49.133   -02 48 50.38  .39019 1.3422 150.2 21.5 1975 172
2019 11 13 11  01 44 42.189   -02 49 07.00  .38998 1.3419 150.1 21.5 1997 172
2019 11 13 12  01 44 35.242   -02 49 23.58  .38977 1.3415 150.1 21.5 2019 172
2019 11 13 13  01 44 28.291   -02 49 40.12  .38956 1.3412 150.0 21.5 2040 172
2019 11 13 14  01 44 21.336   -02 49 56.61  .38935 1.3408 149.9 21.5 2062 172
2019 11 13 15  01 44 14.378   -02 50 13.06  .38914 1.3405 149.9 21.5 2084 172
2019 11 13 16  01 44 07.416   -02 50 29.47  .38893 1.3401 149.8 21.5 2106 172
2019 11 13 17  01 44 00.450   -02 50 45.83  .38872 1.3397 149.7 21.5 2129 172
2019 11 13 18  01 43 53.481   -02 51 02.15  .38851 1.3394 149.7 21.5 2151 172
2019 11 13 19  01 43 46.508   -02 51 18.43  .38831 1.3390 149.6 21.5 2174 172
2019 11 13 20  01 43 39.532   -02 51 34.67  .38810 1.3387 149.6 21.5 2197 172
2019 11 13 21  01 43 32.552   -02 51 50.86  .38789 1.3383 149.5 21.5 2220 172
2019 11 13 22  01 43 25.568   -02 52 07.01  .38768 1.3379 149.4 21.5 2243 172
2019 11 13 23  01 43 18.581   -02 52 23.12  .38747 1.3376 149.4 21.5 2266 172
2019 11 14 00  01 43 11.591   -02 52 39.18  .38727 1.3372 149.3 21.5 2289 172
2019 11 14 01  01 43 04.597   -02 52 55.20  .38706 1.3369 149.3 21.5 2313 172
2019 11 14 02  01 42 57.599   -02 53 11.18  .38685 1.3365 149.2 21.5 2337 172
2019 11 14 03  01 42 50.598   -02 53 27.11  .38665 1.3361 149.1 21.5 2360 172
2019 11 14 04  01 42 43.594   -02 53 43.00  .38644 1.3358 149.1 21.5 2384 172
2019 11 14 05  01 42 36.586   -02 53 58.84  .38623 1.3354 149.0 21.5 2408 172
2019 11 14 06  01 42 29.575   -02 54 14.64  .38603 1.3351 148.9 21.5 2433 172
2019 11 14 07  01 42 22.560   -02 54 30.39  .38582 1.3347 148.9 21.5 2457 172
2019 11 14 08  01 42 15.542   -02 54 46.10  .38562 1.3343 148.8 21.5 2482 172
2019 11 14 09  01 42 08.520   -02 55 01.77  .38541 1.3340 148.8 21.5 2507 172
2019 11 14 10  01 42 01.495   -02 55 17.39  .38521 1.3336 148.7 21.5 2532 172
2019 11 14 11  01 41 54.467   -02 55 32.97  .38501 1.3333 148.6 21.5 2557 172
2019 11 14 12  01 41 47.435   -02 55 48.50  .38480 1.3329 148.6 21.5 2582 172
2019 11 14 13  01 41 40.400   -02 56 03.99  .38460 1.3325 148.5 21.5 2607 172
2019 11 14 14  01 41 33.362   -02 56 19.43  .38440 1.3322 148.4 21.5 2633 172
2019 11 14 15  01 41 26.320   -02 56 34.83  .38419 1.3318 148.4 21.5 2659 172
2019 11 14 16  01 41 19.276   -02 56 50.18  .38399 1.3315 148.3 21.5 2684 172
2019 11 14 17  01 41 12.227   -02 57 05.49  .38379 1.3311 148.3 21.5 2710 172
2019 11 14 18  01 41 05.176   -02 57 20.75  .38359 1.3308 148.2 21.5 2737 172
2019 11 14 19  01 40 58.121   -02 57 35.97  .38338 1.3304 148.1 21.5 2763 172
2019 11 14 20  01 40 51.063   -02 57 51.14  .38318 1.3300 148.1 21.5 2790 172
2019 11 14 21  01 40 44.002   -02 58 06.26  .38298 1.3297 148.0 21.5 2816 172
2019 11 14 22  01 40 36.938   -02 58 21.34  .38278 1.3293 147.9 21.5 2843 172
2019 11 14 23  01 40 29.870   -02 58 36.37  .38258 1.3290 147.9 21.5 2870 172
2019 11 15 00  01 40 22.799   -02 58 51.36  .38238 1.3286 147.8 21.5 2897 172
2019 11 15 01  01 40 15.725   -02 59 06.30  .38218 1.3282 147.8 21.5 2925 173
2019 11 15 02  01 40 08.648   -02 59 21.20  .38198 1.3279 147.7 21.5 2952 173
2019 11 15 03  01 40 01.568   -02 59 36.04  .38178 1.3275 147.6 21.5 2980 173
2019 11 15 04  01 39 54.485   -02 59 50.85  .38158 1.3272 147.6 21.5 3008 173
2019 11 15 05  01 39 47.398   -03 00 05.60  .38138 1.3268 147.5 21.5 3036 173
2019 11 15 06  01 39 40.309   -03 00 20.31  .38118 1.3264 147.4 21.5 3064 173
2019 11 15 07  01 39 33.216   -03 00 34.97  .38098 1.3261 147.4 21.5 3092 173
2019 11 15 08  01 39 26.121   -03 00 49.59  .38079 1.3257 147.3 21.5 3121 173
2019 11 15 09  01 39 19.022   -03 01 04.16  .38059 1.3254 147.2 21.5 3150 173